This is the latest recevied weather packets stored in our database for station/object DG4MND-4. If no packets are shown the sender has not sent any weather packets the latest 10 day(s).
| Time | Temp. | Humidity | Pressure | Rain* | Wind** | Luminosity | Snow |
|---|---|---|---|---|---|---|---|
| 1777684828 | 4.44° C | 88% | 1022.7 hPa | 0 mm | - | - | - |
| 1777684222 | 4.44° C | 89% | 1022.6 hPa | 0 mm | - | - | - |
| 1777683622 | 4.44° C | 89% | 1022.8 hPa | 0 mm | - | - | - |
| 1777683018 | 4.44° C | 88% | 1022.9 hPa | 0 mm | - | - | - |
| 1777682475 | 4.44° C | 87% | 1023 hPa | 0 mm | - | - | - |
| 1777681871 | 5° C | 86% | 1022.9 hPa | 0 mm | - | - | - |
| 1777681268 | 5.56° C | 85% | 1022.9 hPa | 0 mm | - | - | - |
| 1777680662 | 5.56° C | 84% | 1023.1 hPa | 0 mm | - | - | - |
| 1777680058 | 5.56° C | 83% | 1023.1 hPa | 0 mm | - | - | - |
| 1777679455 | 5.56° C | 83% | 1023 hPa | 0 mm | - | - | - |
| 1777678855 | 5.56° C | 84% | 1023.2 hPa | 0 mm | - | - | - |
| 1777678248 | 5.56° C | 82% | 1023.2 hPa | 0 mm | - | - | - |
| 1777677647 | 6.11° C | 81% | 1023.2 hPa | 0 mm | - | - | - |
| 1777677041 | 6.67° C | 80% | 1023.3 hPa | 0 mm | - | - | - |
| 1777676437 | 6.11° C | 80% | 1023.4 hPa | 0 mm | - | - | - |
| 1777675833 | 6.67° C | 79% | 1023.5 hPa | 0 mm | - | - | - |
| 1777675230 | 6.67° C | 78% | 1023.5 hPa | 0 mm | - | - | - |
| 1777674631 | 7.22° C | 77% | 1023.7 hPa | 0 mm | - | - | - |
| 1777674027 | 7.22° C | 75% | 1023.7 hPa | 0 mm | - | - | - |
| 1777673420 | 7.78° C | 74% | 1023.6 hPa | 0 mm | - | - | - |
| 1777672816 | 8.33° C | 72% | 1023.7 hPa | 0 mm | - | - | - |
| 1777672273 | 8.33° C | 70% | 1023.6 hPa | 0 mm | - | - | - |
| 1777671669 | 8.89° C | 70% | 1023.5 hPa | 0 mm | - | - | - |
| 1777671069 | 8.89° C | 70% | 1023.5 hPa | 0 mm | - | - | - |
| 1777670463 | 9.44° C | 68% | 1023.7 hPa | 0 mm | - | - | - |
* Rain latest hour (hover to see other rain measurements)
** Current wind speed in m/s (hover to see current wind gust speed)